TimeCST,TemperatureF,Dew PointF,Humidity,Sea Level PressureIn,VisibilityMPH,Wind Direction,Wind SpeedMPH,Gust SpeedMPH,PrecipitationIn,Events,Conditions,WindDirDegrees,DateUTC
12:00 AM,75.2,73.4,94,29.92,-9999.0,Calm,Calm,-,N/A,,Clear,0,2012-10-15 06:00:00
1:00 AM,75.2,73.4,94,29.89,-9999.0,Calm,Calm,-,N/A,,Clear,0,2012-10-15 07:00:00
2:00 AM,75.2,73.4,94,29.86,-9999.0,Calm,Calm,-,N/A,,Clear,0,2012-10-15 08:00:00
3:00 AM,73.4,71.6,94,29.86,-9999.0,Calm,Calm,-,N/A,,Clear,0,2012-10-15 09:00:00
4:00 AM,73.4,71.6,94,29.86,-9999.0,Calm,Calm,-,N/A,,Clear,0,2012-10-15 10:00:00
5:00 AM,71.6,69.8,94,29.86,-9999.0,Calm,Calm,-,N/A,,Clear,0,2012-10-15 11:00:00
6:00 AM,72,70,91,29.89,25,Calm,Calm,,,,Scattered Clouds,,2012-10-15 12:00:00
6:00 AM,71.6,69.8,94,29.89,6.2,Calm,Calm,-,N/A,,Scattered Clouds,0,2012-10-15 12:00:00
7:00 AM,77.0,71.6,83,29.92,6.2,Calm,Calm,-,N/A,,Scattered Clouds,0,2012-10-15 13:00:00
8:00 AM,80.6,71.6,74,29.92,6.2,Calm,Calm,-,N/A,,Partly Cloudy,0,2012-10-15 14:00:00
9:00 AM,86.0,68.0,55,29.95,6.2,Calm,Calm,-,N/A,,Scattered Clouds,0,2012-10-15 15:00:00
10:00 AM,89.6,71.6,55,29.95,6.2,Calm,Calm,-,N/A,,Scattered Clouds,0,2012-10-15 16:00:00
11:00 AM,89.6,71.6,55,29.92,6.2,SSE,11.5,-,N/A,,Scattered Clouds,150,2012-10-15 17:00:00
12:00 PM,87.8,77.0,70,29.92,6.2,South,11.5,-,N/A,,Scattered Clouds,180,2012-10-15 18:00:00
1:00 PM,87.8,77.0,70,29.86,6.2,South,11.5,-,N/A,,Scattered Clouds,180,2012-10-15 19:00:00
2:00 PM,87.8,77.0,70,29.83,6.2,South,13.8,-,N/A,,Mostly Cloudy,180,2012-10-15 20:00:00
3:00 PM,87.8,78.8,75,29.80,6.2,South,9.2,-,N/A,Thunderstorm,Thunderstorm,180,2012-10-15 21:00:00
4:00 PM,87.8,77.0,70,29.83,5.0,South,4.6,-,N/A,Thunderstorm,Thunderstorm,180,2012-10-15 22:00:00
5:00 PM,82.4,75.2,79,29.83,6.2,Calm,Calm,-,N/A,,Partly Cloudy,0,2012-10-15 23:00:00
6:00 PM,80.6,75.2,84,29.86,6.2,Calm,Calm,-,N/A,,Scattered Clouds,0,2012-10-16 00:00:00
7:00 PM,77.0,73.4,89,29.86,6.2,Calm,Calm,-,N/A,,Scattered Clouds,0,2012-10-16 01:00:00
8:00 PM,77.0,73.4,89,29.89,-9999.0,Calm,Calm,-,N/A,,Clear,0,2012-10-16 02:00:00
9:00 PM,75.2,73.4,94,29.92,-9999.0,Calm,Calm,-,N/A,,Clear,0,2012-10-16 03:00:00
10:00 PM,75.2,73.4,94,29.92,-9999.0,Calm,Calm,-,N/A,,Clear,0,2012-10-16 04:00:00
11:00 PM,75.2,73.4,94,29.92,-9999.0,Calm,Calm,-,N/A,,Clear,0,2012-10-16 05:00:00